This demonstration page uses our WeatherBlox Daily Observations layout. Learn more.

Left ArrowRight Arrow

Hourly Observations for September 15, 2020

Temp ( °F °C ) Dew Point ( °F °C ) Humidity (%) Winds ( mph kmh ) Pressure ( in mb ) Visibility ( mi km ) Precip ( " mm )
12:54 am 00:54 Clear 60 15.6 56 13.3 86 86 S 5 7 30.23 1024 10 16.0934 0 0
1:54 am 01:54 Clear 56 13.3 53 11.7 90 90 S 6 9 30.22 1024 9 14.48406 0 0
2:54 am 02:54 Clear 56 13.3 54 12.2 93 93 S 5 7 30.22 1023 10 16.0934 0 0
3:54 am 03:54 Clear 55 12.8 53 11.7 93 93 S 3 6 30.21 1023 8 12.87472 0 0
4:54 am 04:54 Clear 56 13.3 53 11.7 90 90 Calm 30.21 1023 7 11.26538 0 0
5:54 am 05:54 Clear 53 11.7 51 10.6 93 93 SSE 3 6 30.2 1023 7 11.26538 0 0
6:54 am 06:54 Clear 56 13.3 54 12.2 93 93 SSE 3 6 30.2 1023 8 12.87472 0 0
7:54 am 07:54 Sunny 54 12.2 52 11.1 93 93 SSE 3 6 30.21 1023 7 11.26538 0 0
8:54 am 08:54 Sunny 60 15.6 57 13.9 90 90 S 5 7 30.2 1023 8 12.87472 0 0
9:54 am 09:54 Sunny 66 18.9 59 15 78 78 SSW 6 9 30.19 1022 9 14.48406 0 0
10:54 am 10:54 Sunny 72 22.2 59 15 64 64 SSW 15 24 30.18 1022 9 14.48406 0 0
11:54 am 11:54 Sunny 75 23.9 58 14.4 55 55 SSW 16 26 30.16 1021 9 14.48406 0 0
12:54 pm 12:54 Sunny 77 25 56 13.3 48 48 SW 18 30 30.13 1020 9 14.48406 0 0
1:54 pm 13:54 Sunny 78 25.6 57 13.9 48 48 S 14 22 30.11 1020 9 14.48406 0 0
2:54 pm 14:54 Sunny 81 27.2 57 13.9 44 44 SSW 15 24 30.08 1019 9 14.48406 0 0
3:54 pm 15:54 Sunny 81 27.2 55 12.8 41 41 SSW 17 28 30.06 1018 9 14.48406 0 0
4:54 pm 16:54 Sunny 81 27.2 57 13.9 44 44 SSW 15 24 30.04 1017 9 14.48406 0 0
5:54 pm 17:54 Sunny 79 26.1 58 14.4 49 49 SSW 13 20 30.04 1017 9 14.48406 0 0
6:54 pm 18:54 Sunny 76 24.4 59 15 56 56 S 10 17 30.03 1017 9 14.48406 0 0
7:54 pm 19:54 Clear 71 21.7 58 14.4 63 63 SSW 3 6 30.04 1017 10 16.0934 0 0
8:54 pm 20:54 Clear 65 18.3 57 13.9 76 76 S 5 7 30.04 1017 10 16.0934 0 0
9:54 pm 21:54 Clear 65 18.3 58 14.4 78 78 Calm 30.04 1017 10 16.0934 0 0
10:54 pm 22:54 Clear 63 17.2 58 14.4 84 84 SSE 5 7 30.04 1017 10 16.0934 0 0
11:54 pm 23:54 Clear 61 16.1 58 14.4 90 90 SSE 3 6 30.03 1017 9 14.48406 0 0

Powered by AerisWeather